Regional Weather Roundup
Issued by NWS

Home | Current Version | Previous Version | Text Only | Print | Product List | Glossary On
Versions: 1 2 3 4 5 6 7 8 9 10 11 12 13 14 15 16 17 18 19 20 21 22 23 24 25 26 27 28 29 30 31 32 33 34 35 36 37 38 39 40 41 42 43 44 45 46 47 48 49 50
000
ASUS43 KMKX 302300
RWRWI

WISCONSIN REGIONAL WEATHER ROUNDUP
NATIONAL WEATHER SERVICE MILWAUKEE/SULLIVAN WI
600 PM CDT THU MAR 30 2017

NOTE: "FAIR" INDICATES FEW OR NO CLOUDS BELOW 12,000 FEET WITH NO
SIGNIFICANT WEATHER AND/OR OBSTRUCTIONS TO VISIBILITY.

WIZ001-002-006>008-014>016-023>028-310000-
NORTHWEST WISCONSIN

CITY           SKY/WX    TMP DP  RH WIND       PRES   REMARKS
SUPERIOR ARPT  CLOUDY    37  32  84 E15G21    29.95R WCI  27
ASHLAND        CLOUDY    37  30  75 NE10      29.93S WCI  30
HAYWARD        CLOUDY    45  29  53 NE16      29.86S
SIREN          CLOUDY    48  31  51 NE12      29.84F
CUMBERLAND     CLOUDY    45  32  61 E3        29.83S
RICE LAKE      CLOUDY    46  32  57 CALM      29.84S
CHETEK         CLOUDY    45  33  63 NE5       29.83S
LADYSMITH      CLOUDY    46  33  60 NE10      29.85S
EAU CLAIRE     NOT AVBL
MENOMONIE      CLOUDY    45  35  68 NE7       29.81F
NEW RICHMOND   CLOUDY    46  32  57 NE9       29.82S
OSCEOLA        CLOUDY    48  34  58 E6        29.85F
$$

WIZ003>005-009-010-017-018-310000-
NORTH CENTRAL WISCONSIN

CITY           SKY/WX    TMP DP  RH WIND       PRES   REMARKS
MANITOWISH WTR CLOUDY    41  32  69 E10       29.87S
ARBOR VITAE    CLOUDY    42  34  74 E8        29.86S
WOODRUFF       CLOUDY    42  34  74 E8        29.86S
RHINELANDER    CLOUDY    38  32  79 NE8       29.86S WCI  32
EAGLE RIVER    CLOUDY    37  30  76 E10       29.87F WCI  30
LAND O LAKES   CLOUDY    39  32  77 E9        29.90S WCI  32
PHILLIPS       CLOUDY    41  32  70 E9G22     29.84S
TOMAHAWK       CLOUDY    38  32  79 E7        29.85S WCI  32
MEDFORD        CLOUDY    39  33  78 NE15      29.81R WCI  30
MERRILL        CLOUDY    38  33  83 E9        29.83S WCI  32
$$

WIZ029-030-035-036-043>047-310000-
CENTRAL WISCONSIN

CITY           SKY/WX    TMP DP  RH WIND       PRES   REMARKS
WAUSAU         CLOUDY    36  33  89 E9G18     29.81R WCI  29
MOSINEE        CLOUDY    36  34  93 NE18G26   29.82R WCI  25
MARSHFIELD     CLOUDY    37  33  85 NE13      29.80R WCI  29
STEVENS POINT  CLOUDY    34  33  96 NE16G24   29.80R WCI  24
WAUPACA        CLOUDY    38  35  89 NE14G23   29.78F WCI  29
WAUTOMA        CLOUDY    36  34  92 NE12G20   29.79R WCI  28
WISC RAPIDS    CLOUDY    37  35  92 E9        29.81R WCI  30
CAMP DOUGLAS   DRIZZLE   37  36  93 NE14      29.78R FOG     WCI  29
$$

WIZ011>013-019>022-031-037>040-048>050-310000-
NORTHEAST WISCONSIN

CITY           SKY/WX    TMP DP  RH WIND       PRES   REMARKS
ANTIGO         CLOUDY    34  32  93 E17G23    29.83S WCI  23
SHAWANO        CLOUDY    37  34  87 NE16G28   29.85F WCI  28
OCONTO         CLOUDY    34  32  93 NE15G25   29.87S WCI  24
STURGEON BAY   FLURRIES  34  33  96 NE14G21   29.87S WCI  25
GREEN BAY      MIX PCPN  35  35 100 NE23G31   29.82F WCI  23
MANITOWOC      NOT AVBL
APPLETON       LGT RAIN  36  34  93 NE20G29   29.75F WCI  25
CLINTONVILLE   CLOUDY    36  34  93 NE16G23   29.82F WCI  26
OSHKOSH        CLOUDY    37  34  89 NE21G31   29.72F WCI  26
$$

WIZ032>034-041-042-053>061-310000-
SOUTHWEST WISCONSIN

CITY           SKY/WX    TMP DP  RH WIND       PRES   REMARKS
LA CROSSE      LGT RAIN  42  36  79 E9        29.78R
SPARTA         CLOUDY    38  36  90 E13G21    29.78R WCI  30
VIROQUA        CLOUDY    37  36  96 NE16      29.73S WCI  27
BOSCOBEL       CLOUDY    41  37  86 NE10G23   29.72S
PRAIRIE DU CHI CLOUDY    39  38  97 NE8       29.70R WCI  34
PLATTEVILLE    CLOUDY    40  40 100 NE17G24   29.68R WCI  31
$$

WIZ056-057-062-063-064-067-068-310000-
SOUTH CENTRAL WISCONSIN

CITY           SKY/WX    TMP DP  RH WIND       PRES   REMARKS
REEDSBURG      CLOUDY    37  36  99 NE10      29.76R WCI  29
BARABOO/DELLS  CLOUDY    36  35  94 NE10      29.75R WCI  29
LONE ROCK      NOT AVBL
MINERAL POINT  CLOUDY    41  41 100 NE12G20   29.69R
MADISON        CLOUDY    40  37  89 NE16      29.74R WCI  31
MIDDLETON      CLOUDY    41  38  90 NE15      29.73S
WATERTOWN      CLOUDY    39  38  97 E9        29.73R WCI  33
MONROE         CLOUDY    39  37  93 NE13      29.67R WCI  32
JANESVILLE     CLOUDY    43  41  93 E18       29.68F
$$

WIZ051-052-058>065-066-070>072-310000-
SOUTHEAST WISCONSIN

CITY           SKY/WX    TMP DP  RH WIND       PRES   REMARKS
MILWAUKEE      CLOUDY    39  37  92 NE14      29.72R WCI  31
WAUKESHA       CLOUDY    37  36  93 E10G18    29.74R WCI  30
MILWAUKEE/TIMM DRIZZLE   37  36  93 NE13G22   29.73R WCI  29
RACINE         CLOUDY    39  36  89 NE13      29.72R WCI  31
KENOSHA        CLOUDY    39  37  92 NE13      29.70R WCI  31
FOND DU LAC    CLOUDY    39  34  82 NE13G25   29.76R WCI  31
SHEBOYGAN      CLOUDY    37  34  89 NE26G35   29.73F WCI  25
WEST BEND      LGT RAIN  37  37 100 E32G38    29.64F WCI  25
JUNEAU         CLOUDY    38  36  92 E8G18     29.75R WCI  32
$$

LSZ147-162-310000-
LAKE SUPERIOR

STATION/POSITION TIME  TEMP    WIND        PRES    WAVE
                       AIR SEA DIR/SP/G            HT/PER
                 (UTC) (F)     (DEG/KT/KT) (MB)    (FT/S)
DEVILS ISLAND    2200   35      40/ 18/ 20 1014.9F
PORT WING        2240   36      30/ 20/ 23 1013.9R
SAXON HARBOR     2240   36     350/  9/ 12 1012.9F
$$

LMZ867-665-643>646-310000-
LAKE MICHIGAN

STATION/POSITION TIME  TEMP    WIND        PRES    WAVE
                       AIR SEA DIR/SP/G            HT/PER
                 (UTC) (F)     (DEG/KT/KT) (MB)    (FT/S)
CHAMBERS ISLAND  2240   33      30/ 13/ 18 1012.2S
NORTHPORT PIER   2240   35      60/ 16/ 21 1013.2R
SISTER BAY       2136   35      90/ 11/ 18   N/A
KEWAUNEE LAKESHO 2230   35      40/ 16/ 23 1010.4S
SHEBOYGAN LAKESH 2200   37      30/ 18/ 20 1008.9F
PORT WASHINGTON  2230   38      30/ 21/ 29 1006.8F
MILWAUKEE LAKESH 2230   38      50/ 16/ 18   N/A
KENOSHA   LAKESH 2200   38      50/ 18/ 24 1005.1
$$

TC  - TEMPERATURE IN CELSIUS
VSB - VISIBILITY IN STATUTE MILES
WCI - WIND CHILL INDEX
HX  - HEAT INDEX





USA.gov is the U.S. government's official web portal to all federal, state and local government web resources and services.